Weather in Mishukovo

Russia / Chuvash Republic     55°02′07″N   46°08′55″E
temp.,
°C
wind,
m/s
gust,
m/s
humid.,
%
clouds,
%
prec.,
mm/h
press.,
hPa
HPBL,
m
24 january, mon
mon2400:00−13nne11100100 0.0 10349
03:00−13nne11100100 0.1 103511
06:00−14nne22100100 0.0 103516
09:00−14nne2210096 0.1 103629
12:00−9ene139563 0.0 1036112
15:00−10e119770 0.1 103510
18:00−16ese229956 0.0 10359
21:00−20se111006 0.0 10359
25 january, tue
tue2500:00−21sse2210055 0.0 10349
03:00−23e1110076 0.0 10339
06:00−23se2210098 0.0 10319
09:00−22sse2210079 0.0 103021
12:00−13sse23915 0.0 1028108
15:00−14se229430 0.0 102521
18:00−18sse229999 0.0 102416
21:00−14sse2397100 0.0 102252
26 january, wed
wed2600:00−12se259780 0.1 1020101
03:00−12sse359696 0.3 1019125
06:00−11sse2596100 0.3 1018125
09:00−12sse249694 0.4 101796
12:00−9ssw3592100 0.1 1016323
15:00−9ssw369481 0.3 1016379
18:00−12ssw229889 0.1 101728
21:00−11ssw2597100 0.2 101793
27 january, thu
thu2700:00−15ssw229988 0.0 101827
03:00−15ssw2599100 0.1 101898
06:00−14s279799 0.0 1018149
09:00−14ssw389799 0.1 1019220
12:00−11sw489299 0.0 1018350
15:00−12ssw479494 0.1 1019244
18:00−18s2210064 0.0 102020
21:00−19ssw2210086 0.0 102024
28 january, fri
fri2800:00−20ssw2210087 0.0 102021
03:00−20s2210091 0.1 102017
06:00−21sse22100100 0.0 102012
09:00−18sse22100100 0.1 101929
12:00−10sse379562 0.0 1018170
15:00−10se239645 0.0 101752
18:00−15se2210098 0.0 101722
21:00−16se23100100 0.1 101629